Location: Sawmill Trailhead
(33.5800°N, 116.4497°W)
Time: 12:46:49
(UTC-08:00)

Envisat - Visible Passes

Search period start: 15 February 2019 00:00
Search period end: 25 February 2019 00:00
Orbit: 764 x 766 km, 98.2° (Epoch: 15 February)

Date Brightness Start Highest point End Pass type
(mag) Time Alt. Az. Time Alt. Az. Time Alt. Az.
15 Feb 3.8 18:55:58 10° S 19:00:53 52° W 19:05:51 10° NNW visible
16 Feb 3.0 18:19:10 10° SSE 18:24:10 65° ENE 18:29:13 10° N visible
16 Feb 6.2 20:02:07 10° WSW 20:03:33 11° W 20:04:59 10° WNW visible
17 Feb 5.0 19:22:13 10° SSW 19:26:31 28° W 19:30:51 10° NW visible
18 Feb 6.5 05:57:55 10° ENE 06:00:03 13° E 06:02:11 10° ESE visible
18 Feb 3.3 18:44:38 10° S 18:49:40 68° W 18:54:44 10° NNW visible
19 Feb 3.2 18:08:07 10° SSE 18:13:00 50° ENE 18:17:54 10° N visible
19 Feb 5.9 19:49:25 10° SW 19:52:14 15° W 19:55:05 10° WNW visible
20 Feb 4.6 19:10:38 10° SSW 19:15:16 36° W 19:19:55 10° NNW visible
21 Feb 3.0 18:33:23 10° SSE 18:38:28 88° WSW 18:43:34 10° NNW visible
22 Feb 3.5 17:57:11 10° SE 18:01:51 39° ENE 18:06:32 10° N visible
22 Feb 5.6 19:37:21 10° SW 19:40:56 19° W 19:44:34 10° NW visible
23 Feb 4.1 18:59:10 10° S 19:04:01 47° W 19:08:54 10° NNW visible
24 Feb 2.9 18:22:14 10° SSE 18:27:16 72° ENE 18:32:20 10° N visible
